Powrót do katalogu

FENGYUN 1C DEB

AktywnySSO
NORAD 30325·DEBRIS·🇨🇳 China

Wystrzelony May 10, 1999 z Taiyuan Satellite Launch Center

Loading…

Następne Przeloty (najbliższe 24 godziny)

TLE

ŚwieżeSource: Space-Track

Epoka: Sep 11, 2026, 11:50 UTC

1 30325U 99025AAL 26254.49323526  .00000061  00000-0  59768-4 0  9997
2 30325  98.7191 270.2498 0015831 199.0982 160.9597 14.09185919  8460

Śledź FENGYUN 1C DEB w czasie rzeczywistym z AllMySat

Download on the App Store